User: anonymous   Login
Location: Unspecified
(0.0000°N, 0.0000°E)
Time: 05:55:17
(UTC+00:00)
Language:

OGO 1 - Orbit

View from above orbital plane
View from above orbital plane
View from above satellite
View from above satellite

Ground track
Ground track

The orbit data is extracted from the following two-line orbital elements,

1   879U 64054A   17346.75899784 +.00000277 +00000-0 +00000-0 0  9997
2   879 084.3189 329.7500 6701208 200.6371 359.8488 00.37797126018105
Epoch (UTC): 12 December 2017 18:12:57
Eccentricity: 0.6701208
inclination: 84.3189°
perigee height: 20277 km
apogee height: 128572 km
right ascension of ascending node: 329.7500°
argument of perigee: 200.6371°
revolutions per day: 0.37797126
mean anomaly at epoch: 359.8488°
orbit number at epoch: 1810

The dashed part of the orbit path shows where the satellite is in the earth's shadow,  

DLR